www.pogodaiklimat.ru
ПОГОДА в Элк-Сити
Время
и дата
05:55 06.02
06:15 06.02
06:35 06.02
06:55 06.02
07:15 06.02
07:35 06.02
07:55 06.02
08:15 06.02
08:35 06.02
08:55 06.02
09:15 06.02
09:35 06.02
09:55 06.02
10:15 06.02
10:35 06.02
10:55 06.02
11:15 06.02
11:35 06.02
11:55 06.02
12:15 06.02
12:35 06.02
12:55 06.02
13:15 06.02
13:35 06.02
13:55 06.02
14:15 06.02
14:35 06.02
14:55 06.02
15:15 06.02
15:35 06.02
15:55 06.02
16:15 06.02
16:35 06.02
16:55 06.02
17:15 06.02
17:35 06.02
17:55 06.02
18:15 06.02
18:35 06.02
18:55 06.02
19:15 06.02
19:35 06.02
19:55 06.02
20:15 06.02
20:35 06.02
20:55 06.02
21:15 06.02
21:35 06.02
Ветер
(напр.,м/с)
Видим. Явления Облачность Т
(С)
Тd
(С)
f
(%)
Тe
(С)
Тes
(С)
Комфортность P
(гПа)
Po
(гПа)
Тmin
(С)
Tmax
(С)
R
(мм)
R24
(мм)
S
(см)
16 км ясно +4.0 +3.7 98 +3 +3 1038.4 939.2
16 км ясно +3.8 +3.6 99 +3 +3 1038.2 939.2
16 км ясно +3.7 +3.4 98 +2 +2 1038.2 939.2
16 км ясно +3.4 +3.2 99 +2 +2 1038.2 939.2
16 км ясно +2.9 +2.8 99 +2 +2 1038.1 938.9
14 км ясно +3.0 +2.8 99 +2 +2 1038.1 938.9
16 км ясно +3.5 +3.1 97 +2 +2 1038.1 938.9
16 км ясно +4.6 +3.8 95 +3 +4 1038.0 938.9
16 км 2/0 6900 m
[Ci]
+6.1 +4.5 89 +5 +6 1038.0 938.9
16 км 2/0 6900 m
[Ci]
+7.4 +4.6 82 +7 +7 1038.0 938.9
16 км 2/0 6900 m
[Ci]
+8.1 +4.6 79 +7 +10 1038.2 939.2
16 км 2/0 6900 m
[Ci]
+10.4 +5.4 71 +10 +13 1038.1 938.9
16 км 2/0 6600 m
[Ci]
+12.2 +5.0 61 +12 +15 1038.0 938.9
16 км 8/0 6600 m
[Ci]
+12.2 +4.7 60 +12 +17 1038.1 938.9
16 км 8/0 6600 m
[Ci]
+12.5 +4.2 57 +12 +17 1038.1 938.9
16 км 5/0 6600 m
[Ci]
+12.7 +4.3 57 +12 +18 1038.4 939.2
16 км 5/0 6600 m
[Ci]
+12.8 +4.3 56 +13 +21 1038.7 939.5
16 км 5/0 6600 m
[Ci]
+12.4 +4.4 58 +12 +21 1038.2 939.2
16 км 8/0 6300 m
[Ci]
+13.1 +4.7 57 +13 +21 1037.9 938.9
16 км 5/0 6300 m
[Ci]
+14.1 +4.7 53 +14 +24 1037.7 938.6
16 км 2/0 6300 m
[Ci]
+14.8 +3.9 48 +15 +26 опасность
простуды
1037.4 938.3
16 км ясно +14.8 +4.0 48 +15 +26 опасность
простуды
1037.1 938.0
16 км ясно +17.0 +4.0 42 +17 +29 опасность
простуды
1036.9 938.0
16 км ясно +17.1 +3.8 41 +17 +29 опасность
простуды
1036.8 937.6
16 км ясно +17.5 +3.5 39 +18 +29 1036.8 937.6
16 км ясно +17.6 +4.5 42 +18 +28 1036.5 937.3
16 км 2/0 5700 m
[Ac]
+19.2 +4.4 38 +19 +28 1036.3 937.3
16 км ясно +20.0 +3.5 34 +20 +30 1036.3 937.3
16 км ясно +21.3 +3.6 31 +21 +28 комфорт 1036.3 937.3
16 км ясно +21.8 +1.8 27 +22 +28 комфорт 1036.5 937.6
16 км ясно +22.2 +1.3 25 +22 +29 комфорт 1036.5 937.6
16 км ясно +22.4 -0.5 22 +22 +25 комфорт 1036.5 937.6
16 км ясно +21.1 +4.4 33 +21 +25 комфорт 1036.6 937.6
16 км ясно +20.1 +5.5 38 +21 +24 комфорт 1036.9 938.0
16 км ясно +19.0 +6.5 44 +19 +20 1037.0 938.0
16 км ясно +17.7 +6.8 49 +18 +19 1037.2 938.3
16 км 2/0 7200 m
[Ci]
+16.9 +6.9 52 +17 +18 1037.5 938.3
10 км мгла ясно +16.6 +0.5 34 +17 +17 1038.5 939.5
16 км ясно +14.9 -3.8 27 +15 +15 1039.2 940.2
16 км ясно +13.8 -3.5 30 +14 +14 1039.8 940.8
16 км ясно +13.0 -3.4 32 +13 +13 1040.0 940.8
16 км ясно +12.3 -3.2 34 +12 +12 1040.0 940.8
16 км 5/0 3000 m
[Ac]
+11.5 -3.0 36 +11 +11 1040.4 941.4
16 км 8/0 2850 m
[Ac]
+11.7 -2.3 38 +12 +12 1040.7 941.7
16 км 8/0 2550 m
[Ac]
+11.8 -1.7 39 +12 +12 1040.8 941.7
16 км 10/0 2400 m
[Ac]
+11.5 -1.3 41 +11 +11 1041.1 942.1
16 км 10/8 1800 m
[Ac]
+11.2 -1.0 43 +11 +11 1040.9 941.7
8 км слабый дождь 8/8 1650 m
[Ns]
+9.2 +1.8 60 +9 +9 1042.0 943.0
Местоположение метеостанции Elk City Regional Business Airport: широта 35.4308 долгота -99.3943 высота над уровнем моря 603 м.
В архиве по умолчанию представлена погода в Элк-Сити за последние 1-2 суток. Обновление информации о фактической погоде в базе происходит ежечасно! Архивные данные за месяц целиком и за предыдущие месяцы Вы можете получить, выбрав интересующий диапазон дат из раскрывающегося списка и нажав кнопку "Ввод!".
Внимание! Архив погоды МЕТАР в базе сайта по станциям, не включенным в климатический монитор, хранится не более 60 дней. Нет смысла пытаться выбрать более раннюю дату.
*Определитесь, кто Вы:
Внимание! Время в таблицах - местное (без учета летнего времени). Для получения всемирного времени необходимо вычесть поправку, которая равна -6 ч.
Смотрите также архив погоды в соседних городах и на ближайших метеорологических станциях:
Партнеры нашего сайта:      
Пояснения к столбцам:
  • Ветер - указаны скорость ветра в м/с - средняя за 10 мин, порывы в срок и между сроками (в фигурных скобках) и направление, откуда дует ветер: С - северный,
  • СВ - северо-восточный, В - восточный, ЮВ - юго-восточный, Ю - южный, ЮЗ - юго-западный, З - западный, СЗ - северо-западный.
  • Видимость - горизонтальная дальность видимости в метрах или километрах. При видимости от 1 до 10 км при отсутствии осадков обычно наблюдается дымка, при ухудшении видимости до 1 км и менее - туман. В сухую погоду видимость может ухудшаться дымом, пылью или мглою.
  • Явления - указаны атмосферные явления, наблюдавшиеся в срок или в последний час перед сроком; фигурными скобками обозначены явления, наблюдавшиеся между сроками (за 1-3 часа до срока); квадратными скобками обозначены град или гололедные отложения с указанием их диаметра в мм.
  • Облачность - указаны через наклонную черту общая и нижняя облачность в баллах и высота нижней границы облаков в метрах; квадратными скобками обозначены формы облаков: Ci - перистые, Cs - перисто-слоистые, Cc - перисто-кучевые, Ac - высококучевые, As - высокослоистые, Sc - слоисто-кучевые, Ns - слоисто-дождевые, Cu - кучевые, Cb - кучево-дождевые. Подробнее классификацию облаков см. в Атласе облаков (PDF).
  • T - Температура воздуха - температура, измеренная на высоте 2 м над землей.
  • Td - Температура точки росы - температура, при понижении до которой содержащийся в воздухе водяной пар достигнет насыщения.
  • f - Относительная влажность воздуха - влажноcть воздуха, измеренная на высоте 2 м над землей.
  • Te - Эффективная температура - температура, которую ощущает одетый по сезону человек в тени. Характеристика душности погоды. При расчете учитывается влияние влажности воздуха и скорости ветра на теплоощущения человека.
  • Tes - Эффективная температура на солнце - температура, которую ощущает человек, с поправкой на солнечный нагрев. Характеристика знойности погоды. Зависит от высоты солнца над горизонтом, облачности и скорости ветра. Ночью, в пасмурную погоду, а также при ветре 12 м/с и более поправка равна нулю.
  • P - Атмосферное давление - приведенное к уровню моря атмосферное давление.
  • Po - Атмосферное давление - измеренное на уровне метеостанции атмосферное давление.
  • Tmin - Минимальная температура - минимум температуры воздуха на высоте 2 м над землей.
  • Tmax - Максимальная температура - максимум температуры воздуха на высоте 2 м над землей.
  • R - Количество осадков - Количество выпавших осадков за период времени, мм. При наведении курсора мыши на число - период времени, за который выпало указанное количество осадков.
  • R24 - Количество осадков - Количество выпавших осадков за 24 часа, мм.
  • S - Снежный покров - Высота снежного покрова, см. При наведении курсора мыши на число - состояние снежного покрова и степень покрытия местности в баллах.